7 * 24
多渠道服务支持
ONEWEB-0693 是 OneWeb 卫星通信星座计划中的第693颗卫星,属于其低轨宽带通信系统的一部分。该卫星旨在为全球用户提供高速互联网服务,特别是在偏远和地面网络覆盖不足的地区。它采用标准化设计,由阿丽亚娜集团制造,并通过火箭发射部署至近地轨道。OneWeb 的星座计划致力于构建全球无缝连接,推动数字包容和通信基础设施的发展。
英国
(GB)
| 数据来源 | 国际轨道数据 |
| 星历时间: | 2025-10-30T01:29:51+0800 11小时前 查看轨道信息 |
| 半长轴: | 7571.85km |
| 偏心率: | 0.0001638 |
| 轨道倾角: | 87.911° |
| 近地点辐角 | 129.808° |
| 升交点赤经 | 51.749° |
| 平近点角 | 230.319° |
| 近地点: | 1192.474km |
| 远地点: | 1194.956km |
| 周期: | 109.286分钟 |
| 每日圈数: | 13.176492 |